When you browse on this site, cookies collect data to enhance your experience and personalize the content and advertising you see.
Visit our Privacy Policy to learn more. By continuing to use the site, you agree to this use of cookies and data.
  • In Schweiz
  • Länderverzeichnis
  • Für 7 Tage
  • Wassertemperatur
  • Wetterkarte
  • Widgets
  • user-avatar
    Anmelden

    Stündliche Wetter Armawir

    Heute, 22 Oktober, Dienstag

    Zeit Temperatur Niederschläge Wind Luftdruck Luftfeuchtigkeit
    00:00 +15°C° 0 mm 1 m/S 690 mmHg 65%
    01:00 +14°C° 0 mm 1 m/S 690 mmHg 67%
    02:00 +14°C° 0 mm 1 m/S 690 mmHg 69%
    03:00 +13°C° 0 mm 1 m/S 689 mmHg 68%
    04:00 +13°C° 0 mm 1 m/S 689 mmHg 69%
    05:00 +13°C° 0 mm 1 m/S 689 mmHg 69%
    06:00 +13°C° 0 mm 1 m/S 690 mmHg 70%
    07:00 +14°C° 0 mm 1 m/S 690 mmHg 64%
    08:00 +16°C° 0 mm 1 m/S 690 mmHg 58%
    09:00 +18°C° 0 mm 1 m/S 690 mmHg 51%
    10:00 +19°C° 0 mm 1 m/S 690 mmHg 50%
    11:00 +19°C° 0 mm 1 m/S 690 mmHg 48%
    12:00 +19°C° 0 mm 2 m/S 690 mmHg 47%
    13:00 +19°C° 0 mm 2 m/S 690 mmHg 46%
    14:00 +20°C° 0 mm 2 m/S 690 mmHg 45%
    15:00 +20°C° 0 mm 2 m/S 689 mmHg 44%
    16:00 +20°C° 0 mm 1 m/S 690 mmHg 49%
    17:00 +19°C° 0 mm 1 m/S 690 mmHg 53%
    18:00 +16°C° 0 mm 1 m/S 690 mmHg 58%
    19:00 +16°C° 0 mm 1 m/S 690 mmHg 60%
    20:00 +14°C° 0 mm 0 m/S 690 mmHg 62%
    21:00 +14°C° 0 mm 0 m/S 690 mmHg 65%
    22:00 +13°C° 0 mm 0 m/S 690 mmHg 67%
    23:00 +13°C° 0 mm 0 m/S 690 mmHg 69%

    Morgen, 23 Oktober, Mittwoch

    Zeit Temperatur Niederschläge Wind Luftdruck Luftfeuchtigkeit
    00:00 +12°C° 0 mm 0 m/S 690 mmHg 71%
    01:00 +13°C° 0 mm 1 m/S 690 mmHg 72%
    02:00 +13°C° 0 mm 1 m/S 689 mmHg 72%
    03:00 +12°C° 0 mm 1 m/S 689 mmHg 72%
    04:00 +12°C° 0 mm 1 m/S 689 mmHg 73%
    05:00 +11°C° 0 mm 1 m/S 689 mmHg 74%
    06:00 +11°C° 0 mm 1 m/S 689 mmHg 75%
    07:00 +13°C° 0 mm 1 m/S 689 mmHg 66%
    08:00 +15°C° 0 mm 1 m/S 690 mmHg 58%
    09:00 +18°C° 0 mm 1 m/S 690 mmHg 50%
    10:00 +19°C° 0 mm 1 m/S 690 mmHg 47%
    11:00 +20°C° 0 mm 1 m/S 690 mmHg 43%
    12:00 +21°C° 0 mm 1 m/S 690 mmHg 40%
    13:00 +22°C° 0 mm 1 m/S 690 mmHg 39%
    14:00 +22°C° 0 mm 1 m/S 689 mmHg 37%
    15:00 +23°C° 0 mm 1 m/S 689 mmHg 36%
    16:00 +21°C° 0 mm 1 m/S 689 mmHg 40%
    17:00 +19°C° 0 mm 1 m/S 689 mmHg 44%
    18:00 +18°C° 0 mm 1 m/S 689 mmHg 49%
    19:00 +16°C° 0 mm 2 m/S 689 mmHg 50%
    20:00 +15°C° 0 mm 2 m/S 689 mmHg 51%
    21:00 +15°C° 0 mm 2 m/S 689 mmHg 52%
    22:00 +14°C° 0 mm 2 m/S 689 mmHg 55%
    23:00 +14°C° 0 mm 1 m/S 689 mmHg 57%

    übermorgen, 24 Oktober, Donnerstag

    Zeit Temperatur Niederschläge Wind Luftdruck Luftfeuchtigkeit
    00:00 +13°C° 0 mm 1 m/S 689 mmHg 59%
    01:00 +13°C° 0 mm 1 m/S 689 mmHg 60%
    02:00 +12°C° 0 mm 1 m/S 689 mmHg 62%
    03:00 +12°C° 0 mm 1 m/S 689 mmHg 64%
    04:00 +11°C° 0 mm 1 m/S 689 mmHg 64%
    05:00 +11°C° 0 mm 1 m/S 689 mmHg 65%
    06:00 +11°C° 0 mm 1 m/S 689 mmHg 65%
    07:00 +13°C° 0 mm 1 m/S 689 mmHg 57%
    08:00 +15°C° 0 mm 1 m/S 690 mmHg 49%
    09:00 +18°C° 0 mm 1 m/S 690 mmHg 41%
    10:00 +19°C° 0 mm 1 m/S 690 mmHg 39%
    11:00 +20°C° 0 mm 1 m/S 690 mmHg 38%
    12:00 +20°C° 0 mm 2 m/S 690 mmHg 36%
    13:00 +20°C° 0 mm 2 m/S 689 mmHg 35%
    14:00 +21°C° 0 mm 2 m/S 689 mmHg 35%
    15:00 +21°C° 0 mm 2 m/S 689 mmHg 34%
    16:00 +19°C° 0 mm 2 m/S 689 mmHg 39%
    17:00 +18°C° 0 mm 1 m/S 688 mmHg 44%
    18:00 +16°C° 0 mm 1 m/S 688 mmHg 50%
    19:00 +15°C° 0 mm 1 m/S 688 mmHg 52%
    20:00 +15°C° 0 mm 1 m/S 688 mmHg 53%
    21:00 +14°C° 0 mm 1 m/S 689 mmHg 55%
    22:00 +14°C° 0 mm 1 m/S 688 mmHg 57%
    23:00 +13°C° 0 mm 1 m/S 688 mmHg 58%

    25 Oktober, Freitag

    Zeit Temperatur Niederschläge Wind Luftdruck Luftfeuchtigkeit
    00:00 +12°C° 0 mm 0 m/S 688 mmHg 60%
    01:00 +12°C° 0 mm 0 m/S 688 mmHg 61%
    02:00 +13°C° 0 mm 1 m/S 688 mmHg 62%
    03:00 +12°C° 0 mm 1 m/S 688 mmHg 63%
    04:00 +12°C° 0 mm 1 m/S 688 mmHg 65%
    05:00 +12°C° 0 mm 1 m/S 688 mmHg 67%
    06:00 +11°C° 0 mm 1 m/S 687 mmHg 69%
    07:00 +13°C° 0 mm 1 m/S 688 mmHg 61%
    08:00 +15°C° 0 mm 1 m/S 688 mmHg 53%
    09:00 +18°C° 0 mm 1 m/S 689 mmHg 45%
    10:00 +20°C° 0 mm 1 m/S 689 mmHg 42%
    11:00 +21°C° 0 mm 1 m/S 689 mmHg 40%
    12:00 +21°C° 0 mm 2 m/S 689 mmHg 37%
    13:00 +21°C° 0 mm 2 m/S 688 mmHg 36%
    14:00 +23°C° 0 mm 2 m/S 688 mmHg 35%
    15:00 +23°C° 0 mm 2 m/S 688 mmHg 34%
    16:00 +21°C° 0 mm 2 m/S 687 mmHg 39%
    17:00 +20°C° 0 mm 1 m/S 687 mmHg 44%
    18:00 +18°C° 0 mm 1 m/S 687 mmHg 49%
    19:00 +18°C° 0 mm 1 m/S 687 mmHg 50%
    20:00 +18°C° 0 mm 1 m/S 687 mmHg 50%
    21:00 +16°C° 0 mm 1 m/S 688 mmHg 51%
    22:00 +16°C° 0 mm 1 m/S 687 mmHg 53%
    23:00 +15°C° 0 mm 1 m/S 687 mmHg 55%

    26 Oktober, Samstag

    Zeit Temperatur Niederschläge Wind Luftdruck Luftfeuchtigkeit
    00:00 +15°C° 0 mm 1 m/S 687 mmHg 57%
    01:00 +15°C° 0 mm 1 m/S 687 mmHg 57%
    02:00 +15°C° 0 mm 1 m/S 687 mmHg 57%
    03:00 +14°C° 0 mm 1 m/S 687 mmHg 57%
    04:00 +14°C° 0 mm 1 m/S 687 mmHg 58%
    05:00 +14°C° 0 mm 1 m/S 687 mmHg 60%
    06:00 +13°C° 0 mm 2 m/S 687 mmHg 62%
    07:00 +15°C° 0 mm 1 m/S 687 mmHg 57%
    08:00 +16°C° 0 mm 1 m/S 688 mmHg 53%
    09:00 +19°C° 0 mm 1 m/S 688 mmHg 48%
    10:00 +20°C° 0 mm 1 m/S 688 mmHg 45%
    11:00 +20°C° 0 mm 2 m/S 688 mmHg 42%
    12:00 +21°C° 0 mm 2 m/S 688 mmHg 40%
    13:00 +21°C° 0 mm 2 m/S 688 mmHg 39%
    14:00 +21°C° 0 mm 2 m/S 687 mmHg 39%
    15:00 +23°C° 0 mm 2 m/S 687 mmHg 38%
    16:00 +20°C° 0.1 mm 2 m/S 687 mmHg 43%
    17:00 +19°C° 0.1 mm 2 m/S 687 mmHg 49%
    18:00 +17°C° 0.1 mm 2 m/S 687 mmHg 54%
    19:00 +16°C° 0 mm 2 m/S 687 mmHg 57%
    20:00 +16°C° 0 mm 2 m/S 687 mmHg 60%
    21:00 +15°C° 0 mm 2 m/S 687 mmHg 62%
    22:00 +15°C° 0 mm 2 m/S 687 mmHg 64%
    23:00 +15°C° 0 mm 1 m/S 687 mmHg 66%

    27 Oktober, Sonntag

    Zeit Temperatur Niederschläge Wind Luftdruck Luftfeuchtigkeit
    00:00 +15°C° 0 mm 1 m/S 687 mmHg 67%
    01:00 +14°C° 0 mm 1 m/S 687 mmHg 70%
    02:00 +14°C° 0 mm 1 m/S 686 mmHg 72%
    03:00 +13°C° 0 mm 1 m/S 686 mmHg 75%
    04:00 +13°C° 0 mm 1 m/S 686 mmHg 75%
    05:00 +13°C° 0 mm 1 m/S 686 mmHg 75%
    06:00 +12°C° 0 mm 1 m/S 686 mmHg 76%
    07:00 +13°C° 0 mm 0 m/S 686 mmHg 69%
    08:00 +14°C° 0 mm 0 m/S 686 mmHg 63%
    09:00 +15°C° 0 mm 0 m/S 687 mmHg 57%
    10:00 +18°C° 0 mm 1 m/S 687 mmHg 53%
    11:00 +19°C° 0 mm 1 m/S 686 mmHg 49%
    12:00 +19°C° 0 mm 2 m/S 686 mmHg 46%
    13:00 +19°C° 0 mm 2 m/S 686 mmHg 45%
    14:00 +20°C° 0 mm 2 m/S 686 mmHg 43%
    15:00 +20°C° 0 mm 2 m/S 685 mmHg 42%
    16:00 +19°C° 0 mm 1 m/S 685 mmHg 47%
    17:00 +18°C° 0 mm 1 m/S 685 mmHg 53%
    18:00 +16°C° 0 mm 1 m/S 685 mmHg 58%
    19:00 +15°C° 0 mm 1 m/S 685 mmHg 59%
    20:00 +15°C° 0 mm 1 m/S 685 mmHg 60%
    21:00 +14°C° 0 mm 1 m/S 685 mmHg 62%
    22:00 +14°C° 0 mm 1 m/S 685 mmHg 62%
    23:00 +14°C° 0 mm 1 m/S 685 mmHg 63%

    28 Oktober, Montag

    Zeit Temperatur Niederschläge Wind Luftdruck Luftfeuchtigkeit
    00:00 +13°C° 0 mm 1 m/S 685 mmHg 64%
    01:00 +13°C° 0 mm 1 m/S 685 mmHg 62%
    02:00 +14°C° 0 mm 1 m/S 685 mmHg 61%
    03:00 +14°C° 0 mm 1 m/S 685 mmHg 60%
    04:00 +14°C° 0 mm 1 m/S 685 mmHg 60%
    05:00 +14°C° 0 mm 1 m/S 685 mmHg 61%
    06:00 +14°C° 0 mm 1 m/S 686 mmHg 61%
    07:00 +14°C° 0 mm 1 m/S 686 mmHg 59%
    08:00 +15°C° 0 mm 1 m/S 686 mmHg 57%
    09:00 +15°C° 0 mm 1 m/S 686 mmHg 54%
    10:00 +16°C° 0.1 mm 1 m/S 686 mmHg 55%
    11:00 +16°C° 0.1 mm 2 m/S 686 mmHg 56%
    12:00 +16°C° 0.1 mm 2 m/S 686 mmHg 57%
    13:00 +16°C° 0 mm 2 m/S 686 mmHg 56%
    14:00 +17°C° 0 mm 2 m/S 686 mmHg 54%
    15:00 +17°C° 0 mm 2 m/S 686 mmHg 52%
    16:00 +16°C° 0 mm 1 m/S 686 mmHg 59%
    17:00 +14°C° 0 mm 1 m/S 686 mmHg 65%
    18:00 +12°C° 0 mm 0 m/S 686 mmHg 71%
    19:00 +11°C° 0 mm 0 m/S 686 mmHg 73%
    20:00 +11°C° 0 mm 0 m/S 686 mmHg 75%
    21:00 +10°C° 0 mm 0 m/S 686 mmHg 77%
    22:00 +10°C° 0 mm 0 m/S 686 mmHg 78%
    23:00 +10°C° 0 mm 0 m/S 686 mmHg 79%
    Mehr zeigen